Regional Weather Roundup
Issued by NWS

Home | Current Version | Previous Version | Graphics & Text | Print | Product List | Glossary Off
Versions: 1 2 3 4 5 6 7 8 9 10 11 12 13 14 15 16 17 18 19 20 21 22 23 24 25 26 27 28 29 30 31 32 33 34 35 36 37 38 39 40 41 42 43 44 45 46 47 48 49 50

000
ASUS43 KTOP 060208
RWRKS

WEATHER ROUNDUP FOR KANSAS
NATIONAL WEATHER SERVICE GOODLAND KS
900 PM CDT THU MAY 05 2016

NOTE:  "FAIR" INDICATES FEW OR NO CLOUDS BELOW 12,000 FEET WITH NO
SIGNIFICANT WEATHER AND/OR OBSTRUCTIONS TO VISIBILITY.

KSZ001>006-013>018-027>032-041>047-060300-
NORTHWEST KANSAS

CITY           SKY/WX    TMP DP  RH WIND       PRES   REMARKS
GOODLAND       CLOUDY    63  45  51 SE10      30.01R
HAYS           CLEAR     63  46  55 SE9       30.02R
HILL CITY      CLOUDY    64  50  60 E6        30.01R
RUSSELL        CLEAR     65  50  58 SE9       30.01R
$$

KSZ061>065-074>080-084>089-060300-
SOUTHWEST KANSAS

CITY           SKY/WX    TMP DP  RH WIND       PRES   REMARKS
DODGE CITY     CLEAR     63  49  60 SE10      30.03R
ELKHART          N/A     69  48  47 SE14        N/A
GARDEN CITY    CLEAR     67  49  52 SE13      30.01R
GREAT BEND     CLEAR     66  45  45 SE8       30.02R
LIBERAL        CLEAR     72  45  37 SE12      30.02R
PRATT          CLOUDY    66  44  45 SE7       30.04R
$$

KSZ066>073-081>083-090>101-060300-
SOUTHEAST KANSAS

CITY           SKY/WX    TMP DP  RH WIND       PRES   REMARKS
CHANUTE        CLEAR     59  46  62 CALM      30.02R
COFFEYVILLE    CLEAR     64  48  56 E3        30.02R
HUTCHINSON     CLEAR     65  45  48 S3        30.03R
MEDICINE LODGE   N/A     70  49  47 SE6       30.02R
NEWTON         CLEAR     66  39  37 SE5       30.06
PARSONS        CLEAR     58  52  80 CALM      30.03R
WICHITA INTL   PTCLDY    70  46  42 CALM      30.02R
WICHITA JABRA  CLEAR     67  44  43 E5        30.02R
WICHITA MCCONL CLEAR     71  42  35 SE6       30.02R
WINFIELD       CLEAR     66  45  46 E3        30.48R
$$

KSZ007>012-019>026-033>040-048>060-102>105-060300-
NORTHEAST KANSAS

CITY           SKY/WX    TMP DP  RH WIND       PRES   REMARKS
CONCORDIA      CLEAR     61  46  57 S8        30.01R
EMPORIA        CLEAR     65  45  48 E6        30.02R
LAWRENCE       CLEAR     57  48  72 E3        30.03R
MANHATTAN      CLEAR     63  45  51 CALM      30.01R
MARYSVILLE     CLEAR     64  45  48 SE3       30.02R
OLATHE IND     CLEAR     64  40  41 NE6       30.04R
OLATHE EXE     CLEAR     65  37  35 CALM      30.03R
SALINA         CLEAR     69  46  43 SE5       30.02R
TOPEKA BILLARD CLEAR     65  49  56 CALM      30.02R
TOPEKA FORBES  CLEAR     64  47  53 SE3       30.02S
$$




USA.gov is the U.S. government's official web portal to all federal, state and local government web resources and services.